Stations météo

réclame
Mon MeteoGroup
Jerez de los Caballeros, Espagne (8337): Température de l'air & dewpoint: 19.09.2018 07:00:00 - 25.09.2018 07:00:00 (CEST)Jerez de los Caballeros, Espagne (8337): Vitesse du vent & gusts: 19.09.2018 07:00:00 - 25.09.2018 07:00:00 (CEST)Jerez de los Caballeros, Espagne (8337): Direction du vent: 19.09.2018 07:00:00 - 25.09.2018 07:00:00 (CEST)Jerez de los Caballeros, Espagne (8337): reduced air pressure: 19.09.2018 07:00:00 - 25.09.2018 07:00:00 (CEST)Jerez de los Caballeros, Espagne (8337): visibility: 19.09.2018 07:00:00 - 25.09.2018 07:00:00 (CEST)Jerez de los Caballeros, Espagne (8337): Ensoleillement: 19.09.2018 07:00:00 - 25.09.2018 07:00:00 (CEST)Jerez de los Caballeros, Espagne (8337): Quantités de précipitations: 19.09.2018 07:00:00 - 25.09.2018 07:00:00 (CEST)
Date & Time tt [°C] td [°C] ff [km/h] ff [knt] fx [km/h] fx [knt] dd ppp [hPa] vv [km] sd [min] rr [mm]
25.09.2018 07:00:00 - - - - - - - - - - -
25.09.2018 06:00:00 20,3 10,4 5 3 7 4 E 1018,8 20 0 0,0
25.09.2018 05:00:00 21,8 9,7 2 1 8 5 SSW 1018,7 20 0 0,0
25.09.2018 04:00:00 22,2 10,0 5 3 9 5 E 1018,8 20 0 0,0
25.09.2018 03:00:00 24,1 9,3 6 3 10 5 ESE 1018,8 20 0 0,0
25.09.2018 02:00:00 26,6 7,6 5 3 9 5 WSW 1018,3 20 0 -
25.09.2018 01:00:00 27,6 8,0 4 2 10 5 WSW 1018,3 20 0 0,0
25.09.2018 00:00:00 28,3 8,0 5 3 15 8 W 1018,2 20 0 0,0
24.09.2018 23:00:00 29,0 7,6 4 2 12 7 SSE 1017,8 20 0 0,0
24.09.2018 22:00:00 30,4 7,6 9 5 18 10 NNE 1016,9 20 0 0,0
24.09.2018 21:00:00 31,8 7,4 10 6 21 12 ENE 1016,1 20 0 0,0
24.09.2018 20:00:00 33,8 6,2 10 6 14 8 NE 1015,7 20 39 -
24.09.2018 19:00:00 35,6 5,9 7 4 18 10 E 1015,2 20 33 0,0
24.09.2018 18:00:00 36,7 4,8 6 3 27 15 ENE 1015,2 20 60 0,0
24.09.2018 17:00:00 37,1 5,1 13 7 26 14 NW 1015,6 20 60 0,0
24.09.2018 16:00:00 37,3 6,4 12 6 32 17 E 1016,0 20 60 0,0
24.09.2018 15:00:00 36,2 6,4 13 7 37 20 ENE 1017,0 20 60 0,0
24.09.2018 14:00:00 35,7 7,7 16 9 30 16 ENE 1017,9 20 60 -
24.09.2018 13:00:00 33,9 7,8 9 5 22 12 ENE 1018,6 20 60 0,0
24.09.2018 12:00:00 30,7 8,4 16 9 26 14 ENE 1019,3 20 60 0,0
24.09.2018 11:00:00 27,0 9,8 11 6 16 9 E 1019,8 20 60 0,0
24.09.2018 10:00:00 21,7 11,7 6 3 9 5 E 1020,4 20 60 0,0
24.09.2018 09:00:00 19,4 11,7 6 3 11 6 E 1020,6 20 27 0,0
24.09.2018 08:00:00 18,1 11,2 6 4 7 4 ENE 1020,3 20 0 -
24.09.2018 07:00:00 19,1 10,9 3 2 11 6 SE 1019,7 20 0 0,0
24.09.2018 06:00:00 20,8 10,0 1 1 5 3 NNW 1019,4 20 0 0,0
24.09.2018 05:00:00 20,5 10,6 4 2 9 5 S 1019,7 20 0 0,0
24.09.2018 04:00:00 21,7 10,2 8 5 12 6 ENE 1019,9 20 0 0,0
24.09.2018 03:00:00 23,7 9,3 4 2 8 5 SE 1020,0 20 0 0,0
24.09.2018 02:00:00 24,6 8,9 4 2 10 5 SSW 1020,2 20 0 -
24.09.2018 01:00:00 26,6 8,1 2 1 7 4 E 1020,0 20 0 0,0
24.09.2018 00:00:00 28,2 8,5 3 2 14 7 E 1019,3 20 0 0,0
23.09.2018 23:00:00 28,8 8,5 5 3 10 6 ESE 1019,0 20 0 0,0
23.09.2018 22:00:00 30,7 7,8 7 4 24 13 E 1018,5 20 0 0,0
23.09.2018 21:00:00 31,6 7,3 19 10 23 13 N 1017,9 20 0 0,0
23.09.2018 20:00:00 33,4 7,4 14 8 23 12 N 1017,7 20 57 -
23.09.2018 19:00:00 35,1 6,4 14 8 26 14 ENE 1017,2 20 58 0,0
23.09.2018 18:00:00 34,8 7,0 9 5 39 21 NE 1017,3 20 43 0,0
23.09.2018 17:00:00 35,3 7,4 16 9 34 18 NE 1017,5 20 57 0,0
23.09.2018 16:00:00 36,7 6,8 18 10 31 17 E 1017,7 20 60 0,0
23.09.2018 15:00:00 35,8 7,8 15 8 32 18 ENE 1018,5 20 60 0,0
23.09.2018 14:00:00 35,0 8,0 9 5 18 10 NNE 1019,2 20 60 -
23.09.2018 13:00:00 33,8 8,4 8 4 15 8 E 1020,0 20 60 0,0
23.09.2018 12:00:00 31,1 9,9 11 6 16 9 E 1020,8 20 60 0,0
23.09.2018 11:00:00 25,0 12,2 8 5 13 7 ENE 1021,7 20 60 0,0
23.09.2018 10:00:00 22,4 12,1 4 2 8 4 E 1021,8 16 60 0,0
23.09.2018 09:00:00 18,9 11,9 6 4 14 7 E 1022,0 20 26 0,0
23.09.2018 08:00:00 18,1 11,7 6 4 10 6 ESE 1021,7 20 0 -
23.09.2018 07:00:00 19,3 11,3 4 2 12 7 SW 1021,3 20 0 0,0
23.09.2018 06:00:00 20,0 11,4 8 4 11 6 E 1020,8 20 0 0,0
23.09.2018 05:00:00 20,1 11,6 8 5 13 7 ENE 1020,9 20 0 0,0
23.09.2018 04:00:00 21,7 11,1 7 4 9 5 E 1020,7 20 0 0,0
23.09.2018 03:00:00 22,6 11,3 4 2 9 5 SSE 1021,1 18 0 0,0
23.09.2018 02:00:00 24,3 9,8 5 3 11 6 E 1021,1 20 0 -
23.09.2018 01:00:00 26,4 8,4 5 3 10 5 W 1021,0 20 0 0,0
23.09.2018 00:00:00 27,7 9,0 3 1 11 6 S 1020,8 20 0 0,0
22.09.2018 23:00:00 27,6 9,9 10 5 16 9 E 1020,3 20 0 0,0
22.09.2018 22:00:00 - - - - - - - - - - -
22.09.2018 21:00:00 31,3 8,3 8 5 17 9 NNE 1018,6 20 0 0,0
22.09.2018 20:00:00 33,2 8,0 5 3 13 7 E 1018,0 20 35 -
22.09.2018 19:00:00 34,1 8,0 9 5 16 8 E 1017,7 20 11 0,0
22.09.2018 18:00:00 34,3 7,4 5 3 20 11 ESE 1017,7 20 28 0,0
22.09.2018 17:00:00 34,7 6,8 8 5 26 14 NE 1017,9 20 52 0,0
22.09.2018 16:00:00 34,8 8,5 14 8 30 16 NE 1018,2 20 54 0,0
22.09.2018 15:00:00 35,5 9,0 15 8 37 20 ESE 1018,5 20 60 0,0
22.09.2018 14:00:00 34,2 9,4 17 9 28 15 ENE 1019,2 20 60 -
22.09.2018 13:00:00 33,2 8,7 14 8 23 12 NE 1020,1 20 60 0,0
22.09.2018 12:00:00 30,7 10,0 11 6 20 11 E 1020,4 20 60 0,0
22.09.2018 11:00:00 26,6 10,3 14 8 19 10 E 1020,9 18 60 0,0
22.09.2018 10:00:00 21,9 11,6 7 4 12 6 E 1021,3 16 60 0,0
22.09.2018 09:00:00 19,0 11,1 5 3 13 7 ESE 1021,4 20 27 0,0
22.09.2018 08:00:00 17,8 11,1 4 2 7 4 E 1021,0 20 0 -
22.09.2018 07:00:00 18,7 11,0 2 1 6 4 NE 1020,5 20 0 0,0
22.09.2018 06:00:00 18,6 11,4 3 2 13 7 E 1020,1 20 0 0,0
22.09.2018 05:00:00 19,7 10,4 5 3 7 4 ENE 1019,7 20 0 0,0
22.09.2018 04:00:00 21,2 10,0 2 1 4 2 SW 1019,7 20 0 0,0
22.09.2018 03:00:00 21,8 10,6 3 2 7 4 ESE 1019,7 20 0 0,0
22.09.2018 02:00:00 23,4 9,8 2 1 16 9 ESE 1019,6 20 0 -
22.09.2018 01:00:00 25,2 8,3 6 4 22 12 ENE 1019,4 20 0 0,0
22.09.2018 00:00:00 25,6 8,5 10 6 27 15 N 1019,1 20 0 0,0
21.09.2018 23:00:00 26,7 8,7 5 3 11 6 ENE 1018,4 20 0 0,0
21.09.2018 22:00:00 27,7 8,5 8 5 29 15 SSW 1017,8 20 0 0,0
21.09.2018 21:00:00 29,6 8,1 18 10 28 15 NNW 1016,5 20 0 0,0
21.09.2018 20:00:00 30,9 9,2 8 4 14 8 NNE 1016,0 20 33 -
21.09.2018 19:00:00 32,6 8,8 5 3 18 10 NNE 1015,5 20 60 0,0
21.09.2018 18:00:00 33,3 8,7 6 3 22 12 NW 1015,2 20 60 0,0
21.09.2018 17:00:00 33,6 8,3 9 5 23 12 WNW 1015,6 20 60 0,0
21.09.2018 16:00:00 33,1 8,5 19 11 32 17 E 1015,9 20 60 0,0
21.09.2018 15:00:00 33,0 9,0 4 2 23 12 NNE 1016,5 20 60 0,0
21.09.2018 14:00:00 31,3 8,9 6 3 16 9 NE 1017,6 20 60 -
21.09.2018 13:00:00 30,3 9,2 4 2 11 6 SSW 1018,2 18 60 0,0
21.09.2018 12:00:00 27,3 9,2 3 2 9 5 S 1018,9 20 60 0,0
21.09.2018 11:00:00 23,0 11,1 5 3 12 7 E 1019,4 20 60 0,0
21.09.2018 10:00:00 - - - - - - - - - - -
21.09.2018 09:00:00 17,8 9,9 5 3 7 4 ESE 1019,0 20 31 0,0
21.09.2018 08:00:00 17,1 9,6 5 3 9 5 ENE 1018,8 20 0 -
21.09.2018 07:00:00 17,2 9,6 6 3 13 7 ESE 1018,9 20 0 0,0
21.09.2018 06:00:00 18,1 9,7 8 4 8 5 E 1018,2 20 0 0,0
21.09.2018 05:00:00 18,9 9,4 5 3 8 4 NNE 1017,8 20 0 0,0
21.09.2018 04:00:00 20,7 8,7 5 3 10 5 WSW 1018,1 20 0 0,0
21.09.2018 03:00:00 21,4 8,9 7 4 9 5 W 1018,4 20 0 0,0
21.09.2018 02:00:00 22,6 10,4 4 2 8 4 NNE 1018,0 20 0 -
21.09.2018 01:00:00 24,1 11,1 6 4 11 6 ESE 1017,6 20 0 0,0
21.09.2018 00:00:00 26,0 8,5 4 2 17 9 N 1017,2 20 0 0,0
20.09.2018 23:00:00 26,6 9,0 13 7 26 14 NW 1016,9 20 0 0,0
20.09.2018 22:00:00 27,8 11,8 6 3 16 8 N 1016,3 20 0 0,0
20.09.2018 21:00:00 28,2 12,1 15 8 20 11 ENE 1015,7 20 0 0,0
20.09.2018 20:00:00 30,5 10,4 14 8 29 16 WSW 1015,4 20 38 -
20.09.2018 19:00:00 31,7 11,0 20 11 29 16 WSW 1014,9 20 56 0,0
20.09.2018 18:00:00 31,9 11,7 18 10 29 16 WSW 1015,0 20 51 0,0
20.09.2018 17:00:00 33,1 11,6 14 8 28 15 SW 1015,4 20 47 0,0
20.09.2018 16:00:00 31,9 11,7 11 6 27 14 WSW 1016,1 20 50 0,0
20.09.2018 15:00:00 31,7 12,5 11 6 29 16 WSW 1016,7 20 60 0,0
20.09.2018 14:00:00 31,5 11,8 13 7 23 13 SW 1017,5 20 60 -
20.09.2018 13:00:00 30,0 11,0 13 7 25 14 SSW 1018,3 20 60 0,0
20.09.2018 12:00:00 27,7 12,5 12 7 22 12 SSW 1018,8 20 60 0,0
20.09.2018 11:00:00 24,6 12,8 4 2 9 5 SW 1019,3 20 60 0,0
20.09.2018 10:00:00 20,3 12,7 7 4 10 5 E 1019,7 20 60 0,0
20.09.2018 09:00:00 17,7 12,3 3 2 12 6 N 1019,7 20 25 0,0
20.09.2018 08:00:00 18,2 12,0 7 4 11 6 E 1019,1 20 0 -
20.09.2018 07:00:00 17,8 12,0 8 4 11 6 E 1019,1 20 0 0,0
20.09.2018 06:00:00 19,8 11,0 5 3 9 5 ESE 1018,7 20 0 0,0
20.09.2018 05:00:00 20,4 12,3 4 2 7 4 E 1018,8 20 0 0,0
20.09.2018 04:00:00 21,6 12,2 4 2 5 3 SW 1018,9 20 0 0,0
20.09.2018 03:00:00 22,2 12,1 5 3 5 3 ENE 1019,1 20 0 0,0
20.09.2018 02:00:00 23,1 12,1 3 2 10 5 ESE 1019,2 20 0 -
20.09.2018 01:00:00 24,7 11,2 3 2 8 4 W 1019,0 20 0 0,0
20.09.2018 00:00:00 25,5 10,9 5 3 11 6 SSW 1018,7 20 0 0,0
19.09.2018 23:00:00 26,8 9,7 6 4 15 8 W 1018,5 20 0 0,0
19.09.2018 22:00:00 28,3 9,6 5 3 25 13 N 1017,7 20 0 0,0
19.09.2018 21:00:00 29,3 9,9 16 9 23 12 NNW 1017,1 20 0 0,0
19.09.2018 20:00:00 30,9 10,3 15 8 25 13 N 1016,5 20 52 -
19.09.2018 19:00:00 32,0 9,6 4 2 18 10 N 1016,2 20 34 0,0
19.09.2018 18:00:00 33,3 9,3 6 3 22 12 ENE 1015,9 20 52 0,0
19.09.2018 17:00:00 33,2 9,9 16 9 27 15 E 1016,1 20 60 0,0
19.09.2018 16:00:00 32,8 9,6 10 6 32 17 NE 1016,8 20 60 0,0
19.09.2018 15:00:00 33,0 10,4 8 4 23 13 ESE 1017,3 20 60 0,0
19.09.2018 14:00:00 32,0 10,0 11 6 16 9 E 1017,7 20 60 -
19.09.2018 13:00:00 31,2 9,4 5 3 17 9 S 1018,6 20 60 0,0
19.09.2018 12:00:00 28,5 9,2 10 5 18 10 E 1019,2 20 60 0,0
19.09.2018 11:00:00 24,1 12,4 7 4 12 6 ENE 1019,6 20 60 0,0
19.09.2018 10:00:00 20,7 13,0 5 3 9 5 E 1019,4 20 60 0,0
19.09.2018 09:00:00 18,7 12,6 3 1 10 5 ENE 1019,4 20 31 0,0
19.09.2018 08:00:00 17,1 12,2 8 5 11 6 E 1019,3 20 0 -
19.09.2018 07:00:00 17,7 12,1 9 5 12 6 E 1018,9 20 0 0,0

tt = Température de l'air
td = dewpoint
ff = Vitesse du vent
fx = gusts
dd = Direction du vent
ppp = reduced air pressure
vv = visibility
sd = Ensoleillement
rr = Quantités de précipitations

stations d'obs. à proximité